Hourly Data Report for October 10, 2019

All times are specified in Local Standard Time (LST). Add 1 hour to adjust for Daylight Saving Time where and when it is observed.

EUREKA CLIMATE
NUNAVUT
Current Station Operator: ECCC - MSC

79°59'21.000" N
85°56'02.000" W
10.00 m
2401199
71613
NEK

Download Data

Hourly Data (October 2019)
Hourly Data Report for October 10, 2019
TIME Temp Definition
°C
Dew Point Definition
°C
Rel Hum Definition
%
Wind Dir Definition
10's deg

Wind Spd Definition
km/h
Visibility Definition
km
Stn Press Definition
kPa
Hmdx Definition


Wind Chill Definition


Weather Definition


00:00 -1.8 -4.2 84 15 38   100.59   -10 LegendNANA
01:00 -1.8 -4.2 84 17 36   100.63   -9 LegendNANA
02:00 -2.0 -4.4 84 15 27   100.68   -9 LegendNANA
03:00 -2.1 -4.3 85 17 27   100.66   -9 LegendNANA
04:00 -1.9 -4.2 85 15 27   100.68   -9 LegendNANA
05:00 -2.0 -3.9 87 17 33   100.66   -9 LegendNANA
06:00 -2.1 -4.0 87 18 28   100.67   -9 LegendNANA
07:00 -2.3 -4.3 86 16 20   100.67   -8 LegendNANA
08:00 -2.8 -4.1 91 14 15   100.68   -8 LegendNANA
09:00 -3.3 -4.6 91 13 13   100.70   -8 LegendNANA
10:00 -2.6 -3.8 91 13 11   100.66   -7 LegendNANA
11:00 -2.9 -3.9 93 13 14   100.65   -8 LegendNANA
12:00 -3.4 -3.9 96 10 5   100.63   -5 LegendNANA
13:00 -3.0 -3.2 98 13 10   100.59   -7 LegendNANA
14:00 -3.4 -3.6 98 21 4   100.56   -5 LegendNANA
15:00 -3.9 -4.2 98   0   100.56     LegendNANA
16:00 -3.9 -4.1 98 2 2   100.54   -5 LegendNANA
17:00 -4.1 -4.4 98 1 6   100.50   -7 LegendNANA
18:00 -3.9 -4.3 97   0   100.50     LegendNANA
19:00 -4.1 -4.6 96   0   100.48     LegendNANA
20:00 -4.2 -4.7 96 8 2   100.45   -5 LegendNANA
21:00 -4.2 -4.6 97 35 3   100.42   -5 LegendNANA
22:00 -4.4 -5.0 96 34 5   100.37   -7 LegendNANA
23:00 -4.4 -5.2 94 29 16   100.34   -10 LegendNANA

Notes on Data Quality.

Legend

  • E = Estimated
  • M = Missing
  • NA = Not Available
Date modified: